[[{"header":{"parameterUnit":"m.s-1","parameterCategory":1,"la1":30.2991,"la2":30.254,"lo1":-89.0895,"lo2":-89.0444,"dy":0.0017,"dx":0.0017,"nx":28,"ny":28,"refTime":"2024-08-19T03:00:00:Z","depth":0,"parameterNumber":2,"parameterNumberName":"U-component_of_WINDS"},"data":[0,0,0,0,0,0,0,0,0,0,0,0,0,0,0,0,0,0,0,0,0,0,0,0,0,0,0,0,0,0,0,0,0,0,0,0,0,0,0,0,0,0,0,0,0,0,0,0,0,0,0,0,0,0,0,0,0,0,-0.2404,-0.2404,0,-0.2363,-0.2363,-0.2362,-0.2292,-0.2291,-0.229,-0.2289,-0.2248,-0.2248,-0.2248,0,0,0,0,0,0,0,0,0,0,0,0,0,-0.2423,-0.2423,-0.2404,-0.2404,-0.2403,-0.2363,-0.2363,-0.2362,-0.2293,-0.2291,-0.2289,-0.2288,-0.2248,-0.2248,-0.2248,0,0,0,0,0,0,0,0,0,0,0,0,0,-0.2402,-0.2423,-0.2405,-0.2364,-0.236,-0.2363,-0.2363,-0.2362,-0.2293,-0.2291,-0.2289,-0.2287,-0.2248,-0.2248,-0.2248,-0.2289,0,0,-0.2249,-0.2249,0,0,0,0,0,0,0,0,-0.2403,-0.2401,-0.237,-0.2367,-0.2362,-0.2331,-0.2354,-0.2338,-0.2293,-0.2318,-0.2289,-0.2286,-0.2277,-0.2275,-0.2271,-0.2287,-0.2285,-0.2249,-0.2249,-0.2249,-0.2249,0,0,0,0,0,0,0,-0.2405,-0.2403,-0.2388,-0.237,-0.2365,-0.2348,-0.2343,-0.2351,-0.2309,-0.2316,-0.2311,-0.2307,-0.2275,-0.2271,-0.227,-0.2284,-0.2249,-0.2249,-0.2249,-0.2249,-0.233,-0.2332,0,0,0,0,0,0,-0.2412,-0.2404,-0.2389,-0.2387,-0.2378,-0.2349,-0.2343,-0.2343,-0.2309,-0.2302,-0.2309,-0.2304,-0.2272,-0.227,-0.2268,-0.2313,-0.2249,-0.2249,-0.2249,-0.2328,-0.2331,-0.2333,0,0,0,0,0,0,-0.2413,-0.2412,-0.2391,-0.2394,-0.239,-0.2351,-0.2351,-0.2343,-0.234,-0.2303,-0.2296,-0.2313,-0.227,-0.2268,-0.2284,-0.2311,-0.2249,-0.2249,-0.2326,-0.2329,-0.2332,-0.2404,0,0,0,0,0,0,-0.2414,-0.2412,-0.2427,-0.2395,-0.239,-0.2408,-0.2353,-0.2344,-0.234,-0.2334,-0.2306,-0.2299,-0.2269,-0.2284,-0.2284,-0.231,-0.225,-0.2323,-0.2327,-0.2331,-0.2399,-0.2409,-0.2418,0,0,0,0,0,-0.2415,-0.245,-0.2428,-0.2427,-0.2408,-0.2409,-0.2407,-0.2371,-0.2343,-0.2358,-0.2334,-0.23,-0.2308,-0.2286,-0.2286,-0.2312,-0.2321,-0.2326,-0.233,-0.2395,-0.2407,-0.2418,0,0,0,0,0,0,-0.2487,-0.2445,-0.2421,-0.2446,-0.2432,-0.2398,-0.2415,-0.2385,-0.2379,-0.2373,-0.2328,-0.2323,-0.2344,-0.233,-0.2306,-0.2349,-0.2309,-0.2314,-0.2358,-0.237,-0.2379,-0.2383,-0.225,0,0,0,0,0,-0.2506,-0.251,-0.2473,-0.2499,-0.2493,-0.2455,-0.2454,-0.2428,-0.2411,-0.2405,-0.2382,-0.2368,-0.2367,-0.2367,-0.2364,-0.2396,-0.2389,-0.2414,-0.2424,-0.2431,-0.2436,-0.2452,-0.2462,-0.2348,-0.2348,-0.2348,0,0,-0.2545,-0.2522,-0.2528,-0.2513,-0.2498,-0.2504,-0.2451,-0.2459,-0.2462,-0.2406,-0.242,-0.2403,-0.2383,-0.2407,-0.2417,-0.2396,-0.2466,-0.2437,-0.2444,-0.2444,-0.2458,-0.2468,-0.2478,-0.2351,-0.235,-0.235,0,0,-0.2619,-0.2602,-0.2622,-0.2608,-0.2587,-0.2562,-0.2567,-0.2536,-0.2523,-0.2535,-0.2493,-0.2497,-0.2496,-0.2484,-0.2478,-0.2546,-0.2515,-0.2546,-0.2596,-0.2611,-0.262,-0.2628,-0.2653,-0.2662,-0.2551,-0.2551,-0.2551,0,-0.2671,-0.2677,-0.2636,-0.2647,-0.2641,-0.259,-0.261,-0.2598,-0.2578,-0.2575,-0.2552,-0.2549,-0.2533,-0.2553,-0.2569,-0.2566,-0.257,-0.255,-0.2622,-0.263,-0.2636,-0.2659,-0.2669,-0.2555,-0.2555,-0.2554,-0.2554,0,-0.2741,-0.2746,-0.2765,-0.2745,-0.2742,-0.2757,-0.2719,-0.272,-0.2693,-0.2671,-0.2684,-0.2662,-0.2654,-0.2656,-0.263,-0.2673,-0.266,-0.263,-0.2589,-0.2652,-0.2673,-0.2681,-0.2561,-0.256,-0.2558,-0.2557,0,0,-0.2861,-0.2818,-0.2826,-0.2816,-0.2788,-0.2791,-0.2803,-0.2795,-0.2797,-0.2784,-0.2793,-0.2793,-0.2765,-0.2758,-0.273,-0.2743,-0.2799,-0.2711,-0.271,-0.2729,-0.2844,-0.2868,-0.2879,-0.2777,-0.2779,-0.278,-0.2846,0,-0.293,-0.2949,-0.2913,-0.2941,-0.2944,-0.2895,-0.2905,-0.289,-0.2868,-0.2868,-0.2844,-0.2845,-0.2808,-0.2803,-0.2814,-0.279,-0.2822,-0.2785,-0.2786,-0.2787,-0.2794,-0.289,-0.2915,-0.2978,-0.2854,-0.2855,-0.2856,0,-0.3014,-0.3004,-0.3032,-0.3002,-0.3002,-0.3012,-0.3001,-0.3002,-0.2982,-0.2966,-0.2957,-0.2924,-0.2934,-0.2894,-0.2907,-0.2883,-0.2881,-0.2869,-0.2871,-0.287,-0.2826,-0.2893,-0.2997,-0.3007,-0.2869,-0.2868,-0.2867,0,-0.3099,-0.3093,-0.3109,-0.3102,-0.3067,-0.3075,-0.3061,-0.3039,-0.3036,-0.3026,-0.3024,-0.3015,-0.3011,-0.3005,-0.297,-0.2944,-0.2988,-0.2944,-0.2974,-0.2976,-0.2987,-0.2987,-0.3094,-0.2985,-0.2985,-0.2984,-0.2984,0,-0.318,-0.32,-0.3147,-0.3157,-0.3177,-0.3134,-0.3155,-0.3136,-0.3117,-0.3122,-0.3078,-0.3084,-0.3038,-0.3039,-0.3011,-0.3027,-0.3025,-0.3012,-0.3005,-0.3016,-0.3018,-0.3016,-0.3011,-0.2987,-0.2986,-0.2986,-0.2985,0,-0.328,-0.3245,-0.3259,-0.3224,-0.3216,-0.3232,-0.3202,-0.321,-0.3185,-0.3192,-0.3191,-0.3153,-0.3151,-0.3116,-0.3107,-0.3089,-0.3115,-0.3099,-0.3122,-0.3117,-0.315,-0.3148,-0.326,-0.3272,-0.3154,-0.3156,-0.3157,0,-0.3335,-0.3348,-0.3314,-0.3315,-0.3302,-0.3303,-0.3299,-0.3257,-0.3255,-0.3234,-0.3244,-0.3239,-0.3233,-0.3233,-0.3204,-0.3197,-0.3181,-0.322,-0.318,-0.3191,-0.3182,-0.3182,-0.3183,-0.323,-0.3231,-0.3232,-0.3233,0,-0.3436,-0.3417,-0.3414,-0.3404,-0.34,-0.339,-0.3378,-0.338,-0.3334,-0.3334,-0.3332,-0.3327,-0.3317,-0.3313,-0.33,-0.3285,-0.3252,-0.3246,-0.3253,-0.3266,-0.3278,-0.3272,-0.3147,-0.3244,-0.3243,-0.3242,-0.3242,-0.3241,-0.3515,-0.3524,-0.3502,-0.3499,-0.3485,-0.3474,-0.3479,-0.3454,-0.3452,-0.344,-0.3416,-0.3417,-0.3397,-0.3376,-0.3364,-0.3365,-0.3345,-0.3354,-0.3357,-0.336,-0.3367,-0.3277,-0.3362,-0.3362,-0.3361,-0.3361,-0.3361,0,-0.3614,-0.3597,-0.3594,-0.3578,-0.3575,-0.3543,-0.3527,-0.3527,-0.3529,-0.3512,-0.3507,-0.3504,-0.3499,-0.3469,-0.3461,-0.3467,-0.3452,-0.3466,-0.3466,-0.3463,-0.3385,-0.338,-0.3479,-0.3479,-0.3479,-0.3479,-0.3479,-0.3479,-0.3666,-0.368,-0.3659,-0.3666,-0.3648,-0.3649,-0.3643,-0.3633,-0.3619,-0.3618,-0.3613,-0.3593,-0.3571,-0.3561,-0.3555,-0.3546,-0.3546,-0.3566,-0.3552,-0.348,-0.3469,-0.3458,-0.3453,-0.3566,-0.3566,-0.363,-0.3631,-0.3631]},{"header":{"parameterUnit":"m.s-1","parameterCategory":1,"la1":30.2991,"la2":30.254,"lo1":-89.0895,"lo2":-89.0444,"dy":0.0017,"dx":0.0017,"nx":28,"ny":28,"refTime":"2024-08-19T03:00:00:Z","depth":0,"parameterNumber":3,"parameterNumberName":"V-component_of_WINDS"},"data":[0,0,0,0,0,0,0,0,0,0,0,0,0,0,0,0,0,0,0,0,0,0,0,0,0,0,0,0,0,0,0,0,0,0,0,0,0,0,0,0,0,0,0,0,0,0,0,0,0,0,0,0,0,0,0,0,0,0,-0.7366,-0.7367,0,-0.7449,-0.745,-0.7451,-0.7521,-0.7522,-0.7522,-0.7523,-0.761,-0.7611,-0.7613,0,0,0,0,0,0,0,0,0,0,0,0,0,-0.727,-0.7272,-0.7366,-0.7367,-0.7368,-0.7449,-0.745,-0.7452,-0.7521,-0.7522,-0.7523,-0.7523,-0.7609,-0.7611,-0.7613,0,0,0,0,0,0,0,0,0,0,0,0,0,-0.7328,-0.7272,-0.7366,-0.7413,-0.7418,-0.7449,-0.745,-0.7452,-0.7521,-0.7522,-0.7523,-0.7524,-0.7609,-0.7611,-0.7613,-0.7606,0,0,-0.7621,-0.7622,0,0,0,0,0,0,0,0,-0.7325,-0.7332,-0.7405,-0.741,-0.7415,-0.7476,-0.7448,-0.7504,-0.752,-0.7482,-0.7523,-0.7524,-0.7565,-0.7571,-0.7584,-0.761,-0.7614,-0.7621,-0.7623,-0.7624,-0.7624,0,0,0,0,0,0,0,-0.7321,-0.7329,-0.7399,-0.7406,-0.7412,-0.743,-0.744,-0.7459,-0.7516,-0.7485,-0.749,-0.7499,-0.7568,-0.7581,-0.7586,-0.7615,-0.7621,-0.7623,-0.7625,-0.7626,-0.7642,-0.7641,0,0,0,0,0,0,-0.7309,-0.7325,-0.7397,-0.7402,-0.7372,-0.7431,-0.7442,-0.7455,-0.7516,-0.7526,-0.7498,-0.7502,-0.7577,-0.7583,-0.759,-0.7587,-0.7624,-0.7626,-0.7627,-0.7643,-0.7642,-0.7641,0,0,0,0,0,0,-0.7307,-0.7315,-0.7393,-0.7365,-0.7376,-0.7431,-0.7446,-0.7456,-0.747,-0.7526,-0.7536,-0.7502,-0.7578,-0.7586,-0.7602,-0.7591,-0.7627,-0.7629,-0.7644,-0.7643,-0.7641,-0.7581,0,0,0,0,0,0,-0.7304,-0.7314,-0.7311,-0.7364,-0.7377,-0.7403,-0.7446,-0.7457,-0.7474,-0.748,-0.7532,-0.7541,-0.7579,-0.7598,-0.7604,-0.7595,-0.7631,-0.7646,-0.7644,-0.7642,-0.7584,-0.7577,-0.7572,0,0,0,0,0,-0.73,-0.729,-0.731,-0.7319,-0.7375,-0.7402,-0.741,-0.7453,-0.7473,-0.7471,-0.7507,-0.754,-0.7591,-0.7599,-0.7607,-0.7598,-0.7647,-0.7644,-0.7642,-0.7587,-0.7579,-0.7572,0,0,0,0,0,0,-0.7235,-0.7298,-0.7321,-0.7328,-0.7359,-0.7414,-0.7413,-0.7443,-0.747,-0.7475,-0.7528,-0.7539,-0.7549,-0.7575,-0.7583,-0.7595,-0.7623,-0.7622,-0.7578,-0.7571,-0.7565,-0.756,-0.7633,0,0,0,0,0,-0.7221,-0.7237,-0.7292,-0.7293,-0.7307,-0.7357,-0.7371,-0.7402,-0.7436,-0.745,-0.7487,-0.752,-0.7544,-0.7559,-0.7583,-0.7587,-0.7601,-0.7585,-0.7579,-0.7574,-0.7573,-0.758,-0.7574,-0.7633,-0.7633,-0.7633,0,0,-0.7193,-0.723,-0.7237,-0.7281,-0.7309,-0.7326,-0.7368,-0.7384,-0.7398,-0.7453,-0.7471,-0.7498,-0.7539,-0.7549,-0.7556,-0.7571,-0.7559,-0.7571,-0.7566,-0.7569,-0.7577,-0.7571,-0.7566,-0.7632,-0.7632,-0.7632,0,0,-0.7151,-0.7179,-0.7185,-0.7212,-0.7253,-0.7287,-0.7288,-0.7338,-0.7359,-0.7377,-0.742,-0.7437,-0.7476,-0.7504,-0.7523,-0.7493,-0.7525,-0.7499,-0.7468,-0.7473,-0.7469,-0.7465,-0.7457,-0.7453,-0.7498,-0.7498,-0.7498,0,-0.7112,-0.7138,-0.7183,-0.7197,-0.7216,-0.7266,-0.7273,-0.7297,-0.7345,-0.7357,-0.7373,-0.7425,-0.7455,-0.7474,-0.7467,-0.748,-0.7484,-0.7495,-0.7466,-0.7462,-0.7459,-0.7452,-0.7448,-0.7495,-0.7495,-0.7495,-0.7495,0,-0.7089,-0.7107,-0.7106,-0.7151,-0.7169,-0.7179,-0.7227,-0.724,-0.7269,-0.7301,-0.732,-0.7359,-0.7393,-0.7399,-0.7427,-0.7423,-0.7431,-0.7455,-0.7485,-0.745,-0.7444,-0.7441,-0.749,-0.7491,-0.7492,-0.7493,0,0,-0.701,-0.7079,-0.7079,-0.7101,-0.715,-0.7166,-0.7178,-0.7211,-0.7223,-0.7254,-0.7268,-0.73,-0.7323,-0.7345,-0.7377,-0.7381,-0.7358,-0.7406,-0.7408,-0.7398,-0.7358,-0.7341,-0.7336,-0.7378,-0.7378,-0.7378,-0.7355,0,-0.6978,-0.7004,-0.7045,-0.7057,-0.7076,-0.7124,-0.7135,-0.7167,-0.7197,-0.7218,-0.7252,-0.7275,-0.7302,-0.7316,-0.7323,-0.7359,-0.7351,-0.7361,-0.7393,-0.7394,-0.7384,-0.7333,-0.7315,-0.7292,-0.7353,-0.7352,-0.7352,0,-0.6945,-0.6974,-0.6988,-0.7038,-0.7047,-0.7056,-0.7092,-0.711,-0.7148,-0.717,-0.7194,-0.7229,-0.7246,-0.7271,-0.7297,-0.7303,-0.7319,-0.7338,-0.7339,-0.7345,-0.7373,-0.7341,-0.7285,-0.7283,-0.7348,-0.7349,-0.7349,0,-0.6889,-0.6931,-0.6946,-0.6962,-0.702,-0.7026,-0.705,-0.709,-0.7108,-0.7138,-0.7151,-0.7182,-0.72,-0.7225,-0.7268,-0.7281,-0.729,-0.7318,-0.731,-0.7309,-0.7312,-0.7311,-0.726,-0.7317,-0.7317,-0.7317,-0.7317,0,-0.6851,-0.6859,-0.6922,-0.6931,-0.6941,-0.6988,-0.6998,-0.7027,-0.7061,-0.7078,-0.712,-0.7135,-0.719,-0.7212,-0.7245,-0.7263,-0.727,-0.7289,-0.7299,-0.7287,-0.7285,-0.73,-0.7304,-0.7316,-0.7316,-0.7317,-0.7317,0,-0.6791,-0.6833,-0.6853,-0.6906,-0.692,-0.6925,-0.6971,-0.6983,-0.7015,-0.7036,-0.7043,-0.7094,-0.7122,-0.7167,-0.7208,-0.723,-0.7243,-0.7257,-0.723,-0.7236,-0.7227,-0.7228,-0.7186,-0.7184,-0.7239,-0.7238,-0.7238,0,-0.6766,-0.6773,-0.6827,-0.6841,-0.6864,-0.6886,-0.6904,-0.6951,-0.6969,-0.7013,-0.702,-0.7051,-0.7078,-0.7121,-0.7162,-0.7194,-0.7211,-0.7194,-0.7216,-0.7205,-0.7214,-0.7214,-0.7216,-0.7189,-0.7188,-0.7188,-0.7187,0,-0.6717,-0.6737,-0.6762,-0.6795,-0.6816,-0.6843,-0.6874,-0.6883,-0.6936,-0.6954,-0.6983,-0.7005,-0.7046,-0.7078,-0.7115,-0.7142,-0.7174,-0.7179,-0.718,-0.7169,-0.7155,-0.7165,-0.7219,-0.7181,-0.7181,-0.7182,-0.7182,-0.7182,-0.6675,-0.6685,-0.6724,-0.6751,-0.6779,-0.6806,-0.682,-0.6854,-0.6878,-0.6916,-0.6942,-0.697,-0.7009,-0.7063,-0.7088,-0.7111,-0.7125,-0.7125,-0.7126,-0.7126,-0.7122,-0.7149,-0.7118,-0.7118,-0.7118,-0.7119,-0.7119,0,-0.6631,-0.6659,-0.6683,-0.6724,-0.6745,-0.6772,-0.6807,-0.6823,-0.6847,-0.6881,-0.6907,-0.6941,-0.6971,-0.7015,-0.7049,-0.7059,-0.7075,-0.7067,-0.7068,-0.7074,-0.7106,-0.7104,-0.7054,-0.7054,-0.7054,-0.7054,-0.7054,-0.7054,-0.661,-0.6628,-0.6653,-0.6686,-0.6714,-0.6741,-0.6759,-0.6785,-0.6812,-0.6848,-0.6874,-0.6902,-0.694,-0.6977,-0.7007,-0.7019,-0.7031,-0.7018,-0.7035,-0.7065,-0.7071,-0.7077,-0.7075,-0.702,-0.702,-0.7002,-0.7001,-0.7001]}]]